| time (UTC) | temp F | wind direction | speed MPH | gust MPH | rain 1hr in | rain 24hr in | rain mn in | humidity % | barometer mb |
| 20260904125522 | 78 | 127 | 1.0 | 3.0 | 0.00 | 0.00 | 0.00 | 96 | 1016.9 |
| 20260904124528 | 78 | 127 | 1.0 | 3.0 | 0.00 | 0.00 | 0.00 | 96 | 1017.0 |
| 20260904124020 | 78 | 127 | 1.0 | 3.0 | 0.00 | 0.00 | 0.00 | 96 | 1016.9 |
| 20260904123520 | 78 | 127 | 1.0 | 2.0 | 0.00 | 0.00 | 0.00 | 96 | 1016.8 |
| 20260904123020 | 78 | 127 | 1.0 | 2.0 | 0.00 | 0.00 | 0.00 | 96 | 1016.9 |
| 20260904122016 | 77 | 127 | 1.0 | 3.0 | 0.00 | 0.00 | 0.00 | 96 | 1016.8 |
| 20260904121514 | 77 | 127 | 0.0 | 0.0 | 0.00 | 0.00 | 0.00 | 96 | 1017.0 |
| 20260904121012 | 77 | 127 | 0.0 | 0.0 | 0.00 | 0.00 | 0.00 | 96 | 1016.8 |
| 20260904120510 | 77 | 127 | 0.0 | 0.0 | 0.00 | 0.00 | 0.00 | 96 | 1016.8 |
| 20260904120010 | 77 | 127 | 0.0 | 0.0 | 0.00 | 0.00 | 0.00 | 96 | 1016.7 |
| 20260904115513 | 77 | 127 | 0.0 | 0.0 | 0.00 | 0.00 | 0.00 | 96 | 1016.7 |
| 20260904115012 | 77 | 127 | 0.0 | 0.0 | 0.00 | 0.00 | 0.00 | 96 | 1016.6 |
| 20260904113502 | 77 | 127 | 0.0 | 0.0 | 0.00 | 0.00 | 0.00 | 96 | 1016.4 |
| 20260904113007 | 77 | 127 | 0.0 | 0.0 | 0.00 | 0.00 | 0.00 | 96 | 1016.3 |
| 20260904112504 | 76 | 127 | 0.0 | 0.0 | 0.00 | 0.00 | 0.00 | 96 | 1016.3 |
| 20260904112001 | 76 | 127 | 0.0 | 0.0 | 0.00 | 0.00 | 0.00 | 96 | 1016.2 |
| 20260904111503 | 76 | 127 | 0.0 | 0.0 | 0.00 | 0.00 | 0.00 | 96 | 1016.2 |
| 20260904111002 | 76 | 127 | 0.0 | 0.0 | 0.00 | 0.00 | 0.00 | 96 | 1016.0 |
| 20260904110503 | 76 | 127 | 0.0 | 0.0 | 0.00 | 0.00 | 0.00 | 96 | 1016.0 |
| 20260904105512 | 76 | 127 | 0.0 | 0.0 | 0.00 | 0.00 | 0.00 | 96 | 1016.0 |
| 20260904105008 | 76 | 127 | 0.0 | 0.0 | 0.00 | 0.00 | 0.00 | 96 | 1016.0 |
| 20260904104504 | 77 | 127 | 0.0 | 0.0 | 0.00 | 0.00 | 0.00 | 96 | 1016.0 |
| 20260904104002 | 77 | 127 | 0.0 | 1.0 | 0.00 | 0.00 | 0.00 | 96 | 1016.0 |
| 20260904103003 | 77 | 127 | 0.0 | 2.0 | 0.00 | 0.00 | 0.00 | 96 | 1015.9 |
| 20260904101500 | 77 | 127 | 0.0 | 1.0 | 0.00 | 0.00 | 0.00 | 96 | 1015.8 |
| 20260904101005 | 77 | 127 | 0.0 | 1.0 | 0.00 | 0.00 | 0.00 | 96 | 1015.8 |
| 20260904100458 | 77 | 127 | 0.0 | 2.0 | 0.00 | 0.00 | 0.00 | 96 | 1015.8 |
| 20260904095958 | 77 | 127 | 0.0 | 2.0 | 0.00 | 0.00 | 0.00 | 95 | 1015.7 |
| 20260904095504 | 77 | 127 | 0.0 | 2.0 | 0.00 | 0.00 | 0.00 | 95 | 1015.7 |
| 20260904094959 | 77 | 127 | 0.0 | 2.0 | 0.00 | 0.00 | 0.00 | 95 | 1015.8 |
| 20260904094500 | 77 | 127 | 0.0 | 2.0 | 0.00 | 0.00 | 0.00 | 95 | 1015.9 |
| 20260904093955 | 77 | 127 | 1.0 | 2.0 | 0.00 | 0.00 | 0.00 | 95 | 1015.8 |
| 20260904092955 | 77 | 127 | 1.0 | 2.0 | 0.00 | 0.00 | 0.00 | 95 | 1015.7 |
| 20260904092456 | 77 | 127 | 1.0 | 2.0 | 0.00 | 0.00 | 0.00 | 95 | 1015.7 |
| 20260904091955 | 77 | 127 | 1.0 | 3.0 | 0.00 | 0.00 | 0.00 | 95 | 1015.7 |
| 20260904091451 | 77 | 127 | 1.0 | 3.0 | 0.00 | 0.00 | 0.00 | 95 | 1015.7 |
| 20260904085951 | 77 | 127 | 1.0 | 3.0 | 0.00 | 0.00 | 0.00 | 95 | 1015.6 |
| 20260904085449 | 77 | 127 | 0.0 | 2.0 | 0.00 | 0.00 | 0.00 | 95 | 1015.6 |
| 20260904084948 | 77 | 127 | 0.0 | 2.0 | 0.00 | 0.00 | 0.00 | 95 | 1015.6 |
| 20260904084447 | 77 | 127 | 0.0 | 0.0 | 0.00 | 0.00 | 0.00 | 95 | 1015.6 |
| 20260904083949 | 77 | 127 | 0.0 | 2.0 | 0.00 | 0.00 | 0.00 | 95 | 1015.5 |
| 20260904083449 | 77 | 127 | 1.0 | 3.0 | 0.00 | 0.00 | 0.00 | 95 | 1015.4 |
| 20260904082949 | 77 | 127 | 0.0 | 3.0 | 0.00 | 0.00 | 0.00 | 95 | 1015.4 |
| 20260904082449 | 77 | 127 | 0.0 | 0.0 | 0.00 | 0.00 | 0.00 | 95 | 1015.4 |
| 20260904081948 | 77 | 127 | 0.0 | 0.0 | 0.00 | 0.00 | 0.00 | 95 | 1015.6 |
| 20260904080949 | 77 | 127 | 0.0 | 0.0 | 0.00 | 0.00 | 0.00 | 95 | 1015.6 |
| 20260904080450 | 77 | 127 | 0.0 | 0.0 | 0.00 | 0.00 | 0.00 | 95 | 1015.6 |
| 20260904075950 | 77 | 127 | 0.0 | 0.0 | 0.00 | 0.00 | 0.00 | 95 | 1015.6 |
| 20260904075448 | 77 | 127 | 0.0 | 0.0 | 0.00 | 0.00 | 0.00 | 95 | 1015.6 |
| 20260904074944 | 77 | 127 | 0.0 | 0.0 | 0.00 | 0.00 | 0.00 | 95 | 1015.6 |
| 20260904073944 | 77 | 127 | 0.0 | 0.0 | 0.00 | 0.00 | 0.00 | 94 | 1015.6 |
| 20260904072941 | 77 | 127 | 0.0 | 0.0 | 0.00 | 0.00 | 0.00 | 94 | 1015.7 |
| 20260904072443 | 77 | 127 | 0.0 | 0.0 | 0.00 | 0.00 | 0.00 | 94 | 1015.7 |
| 20260904071945 | 77 | 127 | 0.0 | 0.0 | 0.00 | 0.00 | 0.00 | 94 | 1015.6 |
| 20260904071443 | 77 | 127 | 0.0 | 0.0 | 0.00 | 0.00 | 0.00 | 94 | 1015.6 |
| 20260904070947 | 77 | 127 | 0.0 | 0.0 | 0.00 | 0.00 | 0.00 | 94 | 1015.5 |
| 20260904065945 | 77 | 127 | 0.0 | 0.0 | 0.00 | 0.00 | 0.00 | 94 | 1015.5 |
| 20260904065439 | 77 | 127 | 0.0 | 0.0 | 0.00 | 0.00 | 0.00 | 94 | 1015.5 |
| 20260904064432 | 77 | 127 | 0.0 | 0.0 | 0.00 | 0.00 | 0.00 | 94 | 1015.4 |
| 20260904063935 | 77 | 127 | 0.0 | 0.0 | 0.00 | 0.00 | 0.00 | 94 | 1015.5 |
| 20260904063435 | 78 | 127 | 0.0 | 0.0 | 0.00 | 0.00 | 0.00 | 94 | 1015.5 |
| 20260904062930 | 78 | 127 | 0.0 | 0.0 | 0.00 | 0.00 | 0.00 | 94 | 1015.6 |
| 20260904062430 | 78 | 127 | 0.0 | 0.0 | 0.00 | 0.00 | 0.00 | 94 | 1015.6 |
| 20260904061930 | 78 | 127 | 0.0 | 0.0 | 0.00 | 0.00 | 0.00 | 94 | 1015.7 |
| 20260904061430 | 78 | 127 | 0.0 | 0.0 | 0.00 | 0.00 | 0.00 | 94 | 1015.6 |
| 20260904060929 | 78 | 127 | 0.0 | 0.0 | 0.00 | 0.00 | 0.00 | 94 | 1015.6 |
| 20260904055426 | 78 | 127 | 1.0 | 2.0 | 0.00 | 0.00 | 0.00 | 93 | 1015.8 |
| 20260904054918 | 78 | 127 | 0.0 | 0.0 | 0.00 | 0.00 | 0.00 | 94 | 1015.9 |
| 20260904054415 | 78 | 127 | 0.0 | 0.0 | 0.00 | 0.00 | 0.00 | 93 | 1015.9 |
| 20260904053914 | 78 | 127 | 0.0 | 1.0 | 0.00 | 0.00 | 0.00 | 93 | 1015.9 |
| 20260904053413 | 78 | 127 | 0.0 | 1.0 | 0.00 | 0.00 | 0.00 | 93 | 1015.9 |
| 20260904052913 | 78 | 127 | 0.0 | 2.0 | 0.00 | 0.00 | 0.00 | 93 | 1016.0 |
| 20260904051912 | 78 | 127 | 1.0 | 2.0 | 0.00 | 0.00 | 0.00 | 93 | 1016.1 |
| 20260904051410 | 78 | 127 | 0.0 | 2.0 | 0.00 | 0.00 | 0.00 | 93 | 1016.1 |
| 20260904050909 | 78 | 127 | 0.0 | 2.0 | 0.00 | 0.00 | 0.00 | 93 | 1016.1 |
| 20260904050405 | 78 | 127 | 1.0 | 2.0 | 0.00 | 0.00 | 0.00 | 93 | 1016.2 |
| 20260904045907 | 79 | 127 | 1.0 | 4.0 | 0.00 | 0.00 | 0.00 | 93 | 1016.2 |
| 20260904044907 | 79 | 127 | 1.0 | 3.0 | 0.00 | 0.00 | 0.00 | 93 | 1016.3 |
| 20260904044408 | 79 | 127 | 1.0 | 2.0 | 0.00 | 0.00 | 0.00 | 93 | 1016.3 |
| 20260904043906 | 79 | 127 | 1.0 | 3.0 | 0.00 | 0.00 | 0.00 | 93 | 1016.3 |
| 20260904043406 | 79 | 127 | 1.0 | 3.0 | 0.00 | 0.00 | 0.00 | 92 | 1016.3 |
| 20260904042857 | 79 | 127 | 0.0 | 2.0 | 0.00 | 0.00 | 0.00 | 92 | 1016.2 |
| 20260904042358 | 79 | 127 | 0.0 | 2.0 | 0.00 | 0.00 | 0.00 | 92 | 1016.3 |
| 20260904041857 | 79 | 127 | 0.0 | 2.0 | 0.00 | 0.00 | 0.00 | 92 | 1016.4 |
| 20260904041355 | 79 | 127 | 0.0 | 2.0 | 0.00 | 0.00 | 0.00 | 92 | 1016.3 |
| 20260904040350 | 79 | 127 | 0.0 | 2.0 | 0.00 | 0.00 | 0.00 | 92 | 1016.2 |
| 20260904035847 | 79 | 127 | 1.0 | 2.0 | 0.00 | 0.00 | 0.00 | 92 | 1016.2 |
| 20260904035349 | 79 | 127 | 1.0 | 3.0 | 0.00 | 0.00 | 0.00 | 92 | 1016.3 |
| 20260904034848 | 79 | 127 | 2.0 | 5.0 | 0.00 | 0.00 | 0.00 | 92 | 1016.3 |
| 20260904034347 | 80 | 127 | 2.0 | 5.0 | 0.00 | 0.00 | 0.00 | 92 | 1016.3 |
| 20260904032845 | 80 | 130 | 1.0 | 4.0 | 0.00 | 0.00 | 0.00 | 92 | 1016.2 |
| 20260904032344 | 80 | 130 | 2.0 | 4.0 | 0.00 | 0.00 | 0.00 | 92 | 1016.2 |
| 20260904031843 | 80 | 130 | 2.0 | 4.0 | 0.00 | 0.00 | 0.00 | 92 | 1016.3 |
| 20260904031344 | 80 | 130 | 2.0 | 4.0 | 0.00 | 0.00 | 0.00 | 91 | 1016.5 |
| 20260904030344 | 80 | 130 | 2.0 | 4.0 | 0.00 | 0.00 | 0.00 | 91 | 1016.5 |
| 20260904025845 | 80 | 130 | 1.0 | 3.0 | 0.00 | 0.00 | 0.00 | 91 | 1016.6 |
| 20260904025346 | 80 | 130 | 1.0 | 3.0 | 0.00 | 0.00 | 0.00 | 91 | 1016.6 |
| 20260904024839 | 80 | 130 | 1.0 | 3.0 | 0.00 | 0.00 | 0.00 | 91 | 1016.6 |
| 20260904024341 | 80 | 130 | 2.0 | 3.0 | 0.00 | 0.00 | 0.00 | 91 | 1016.6 |
| 20260904023841 | 80 | 130 | 2.0 | 4.0 | 0.00 | 0.00 | 0.00 | 90 | 1016.6 |
| 20260904023342 | 80 | 130 | 1.0 | 4.0 | 0.00 | 0.00 | 0.00 | 90 | 1016.6 |
| 20260904022845 | 80 | 130 | 1.0 | 2.0 | 0.00 | 0.00 | 0.00 | 90 | 1016.6 |
| 20260904022345 | 80 | 130 | 1.0 | 2.0 | 0.00 | 0.00 | 0.00 | 90 | 1016.6 |
| 20260904021848 | 80 | 130 | 1.0 | 2.0 | 0.00 | 0.00 | 0.00 | 90 | 1016.6 |
| 20260904021340 | 81 | 130 | 0.0 | 2.0 | 0.00 | 0.00 | 0.00 | 89 | 1016.7 |
| 20260904020342 | 81 | 130 | 0.0 | 1.0 | 0.00 | 0.00 | 0.00 | 89 | 1016.5 |
| 20260904015842 | 81 | 130 | 0.0 | 1.0 | 0.00 | 0.00 | 0.00 | 88 | 1016.4 |
| 20260904015338 | 81 | 130 | 0.0 | 1.0 | 0.00 | 0.00 | 0.00 | 88 | 1016.4 |
| 20260904014336 | 81 | 130 | 0.0 | 1.0 | 0.00 | 0.00 | 0.00 | 88 | 1016.4 |
| 20260904012834 | 82 | 130 | 0.0 | 0.0 | 0.00 | 0.00 | 0.00 | 87 | 1016.4 |
| 20260904012329 | 82 | 130 | 0.0 | 2.0 | 0.00 | 0.00 | 0.00 | 87 | 1016.4 |
| 20260904011829 | 82 | 130 | 0.0 | 2.0 | 0.00 | 0.00 | 0.00 | 86 | 1016.4 |
| 20260904011333 | 82 | 130 | 0.0 | 2.0 | 0.00 | 0.00 | 0.00 | 86 | 1016.4 |
| 20260904010830 | 82 | 130 | 0.0 | 3.0 | 0.00 | 0.00 | 0.00 | 86 | 1016.3 |
| 20260904010336 | 82 | 130 | 0.0 | 3.0 | 0.00 | 0.00 | 0.00 | 86 | 1016.3 |
| 20260904005836 | 82 | 130 | 1.0 | 3.0 | 0.00 | 0.00 | 0.00 | 85 | 1016.2 |
| 20260904005333 | 82 | 130 | 1.0 | 4.0 | 0.00 | 0.00 | 0.00 | 85 | 1016.1 |
| 20260904004331 | 82 | 130 | 0.0 | 3.0 | 0.00 | 0.00 | 0.00 | 85 | 1016.2 |
| 20260904003828 | 83 | 130 | 0.0 | 2.0 | 0.00 | 0.00 | 0.00 | 84 | 1016.0 |
| 20260904003325 | 83 | 130 | 1.0 | 5.0 | 0.00 | 0.00 | 0.00 | 84 | 1015.9 |
| 20260904002821 | 83 | 130 | 1.0 | 5.0 | 0.00 | 0.00 | 0.00 | 84 | 1015.9 |
| 20260904002321 | 83 | 130 | 1.0 | 3.0 | 0.00 | 0.00 | 0.00 | 83 | 1015.9 |
| 20260904001826 | 83 | 130 | 1.0 | 4.0 | 0.00 | 0.00 | 0.00 | 83 | 1016.0 |
| 20260904001325 | 83 | 130 | 1.0 | 4.0 | 0.00 | 0.00 | 0.00 | 82 | 1015.9 |
| 20260904000819 | 83 | 117 | 1.0 | 4.0 | 0.00 | 0.00 | 0.00 | 82 | 1015.9 |
| 20260904000318 | 84 | 118 | 2.0 | 7.0 | 0.00 | 0.00 | 0.00 | 81 | 1015.8 |
| 20260903235817 | 84 | 118 | 2.0 | 7.0 | 0.00 | 0.00 | 0.00 | 81 | 1015.7 |
| 20260903234812 | 85 | 110 | 1.0 | 4.0 | 0.00 | 0.00 | 0.00 | 79 | 1015.6 |
| 20260903234311 | 85 | 110 | 1.0 | 4.0 | 0.00 | 0.00 | 0.00 | 79 | 1015.6 |
| 20260903233818 | 85 | 71 | 2.0 | 8.0 | 0.00 | 0.00 | 0.00 | 79 | 1015.6 |
| 20260903233314 | 85 | 70 | 2.0 | 8.0 | 0.00 | 0.00 | 0.00 | 78 | 1015.5 |
| 20260903232313 | 85 | 79 | 3.0 | 9.0 | 0.00 | 0.00 | 0.00 | 77 | 1015.4 |
| 20260903231812 | 85 | 65 | 2.0 | 6.0 | 0.00 | 0.00 | 0.00 | 77 | 1015.3 |
| 20260903231307 | 85 | 51 | 2.0 | 6.0 | 0.00 | 0.00 | 0.00 | 77 | 1015.2 |
| 20260903230805 | 86 | 133 | 2.0 | 6.0 | 0.00 | 0.00 | 0.00 | 77 | 1015.2 |
| 20260903230305 | 86 | 112 | 3.0 | 6.0 | 0.00 | 0.00 | 0.00 | 76 | 1015.1 |
| 20260903225804 | 86 | 91 | 3.0 | 11.0 | 0.00 | 0.00 | 0.00 | 75 | 1015.1 |
| 20260903225306 | 86 | 70 | 3.0 | 11.0 | 0.00 | 0.00 | 0.00 | 75 | 1015.0 |
| 20260903224803 | 86 | 62 | 3.0 | 11.0 | 0.00 | 0.00 | 0.00 | 75 | 1015.0 |
| 20260903224307 | 86 | 98 | 1.0 | 9.0 | 0.00 | 0.00 | 0.00 | 75 | 1014.9 |
| 20260903223803 | 86 | 104 | 1.0 | 4.0 | 0.00 | 0.00 | 0.00 | 75 | 1015.0 |
| 20260903223254 | 87 | 104 | 1.0 | 4.0 | 0.00 | 0.00 | 0.00 | 75 | 1015.0 |
| 20260903222233 | 87 | 67 | 2.0 | 3.0 | 0.00 | 0.00 | 0.00 | 74 | 1014.9 |
| 20260903221734 | 87 | 67 | 2.0 | 8.0 | 0.00 | 0.00 | 0.00 | 73 | 1014.8 |
| 20260903220240 | 88 | 84 | 4.0 | 11.0 | 0.00 | 0.00 | 0.00 | 71 | 1015.1 |
| 20260903215736 | 89 | 123 | 3.0 | 10.0 | 0.00 | 0.00 | 0.00 | 69 | 1015.0 |
| 20260903215233 | 90 | 108 | 3.0 | 10.0 | 0.00 | 0.00 | 0.00 | 69 | 1015.0 |
| 20260903214734 | 91 | 112 | 3.0 | 7.0 | 0.00 | 0.00 | 0.00 | 68 | 1014.9 |
| 20260903214231 | 91 | 136 | 2.0 | 7.0 | 0.00 | 0.00 | 0.00 | 68 | 1014.7 |
| 20260903213730 | 91 | 73 | 2.0 | 7.0 | 0.00 | 0.00 | 0.00 | 67 | 1014.8 |
| 20260903213233 | 90 | 118 | 3.0 | 11.0 | 0.00 | 0.00 | 0.00 | 67 | 1014.9 |
| 20260903212229 | 92 | 73 | 3.0 | 11.0 | 0.00 | 0.00 | 0.00 | 64 | 1014.9 |
| 20260903211231 | 91 | 58 | 3.0 | 8.0 | 0.00 | 0.00 | 0.00 | 69 | 1014.8 |
| 20260903210730 | 90 | 55 | 3.0 | 6.0 | 0.00 | 0.00 | 0.00 | 70 | 1014.9 |
| 20260903210235 | 89 | 49 | 3.0 | 6.0 | 0.00 | 0.00 | 0.00 | 70 | 1014.8 |
| 20260903205738 | 89 | 58 | 5.0 | 10.0 | 0.00 | 0.00 | 0.00 | 69 | 1014.8 |
| 20260903205252 | 89 | 32 | 6.0 | 12.0 | 0.00 | 0.00 | 0.00 | 68 | 1014.9 |
| 20260903204748 | 90 | 46 | 7.0 | 14.0 | 0.00 | 0.00 | 0.00 | 66 | 1014.9 |
| 20260903204248 | 92 | 60 | 6.0 | 14.0 | 0.00 | 0.00 | 0.00 | 65 | 1014.9 |
| 20260903203810 | 92 | 56 | 3.0 | 10.0 | 0.00 | 0.00 | 0.00 | 64 | 1015.0 |
| 20260903202756 | 92 | 102 | 3.0 | 10.0 | 0.00 | 0.00 | 0.00 | 64 | 1015.1 |
| 20260903202301 | 92 | 80 | 4.0 | 11.0 | 0.00 | 0.00 | 0.00 | 64 | 1015.2 |
| 20260903201745 | 91 | 119 | 4.0 | 11.0 | 0.00 | 0.00 | 0.00 | 64 | 1015.2 |
| 20260903201248 | 91 | 77 | 3.0 | 10.0 | 0.00 | 0.00 | 0.00 | 64 | 1015.2 |
| 20260903200725 | 91 | 42 | 4.0 | 9.0 | 0.00 | 0.00 | 0.00 | 67 | 1015.1 |
| 20260903200249 | 91 | 15 | 5.0 | 12.0 | 0.00 | 0.00 | 0.00 | 66 | 1015.2 |
| 20260903195210 | 93 | 53 | 4.0 | 10.0 | 0.00 | 0.00 | 0.00 | 64 | 1015.3 |
| 20260903194707 | 93 | 142 | 2.0 | 9.0 | 0.00 | 0.00 | 0.00 | 65 | 1015.3 |
| 20260903194205 | 93 | 135 | 3.0 | 10.0 | 0.00 | 0.00 | 0.00 | 67 | 1015.4 |
| 20260903193203 | 93 | 104 | 3.0 | 10.0 | 0.00 | 0.00 | 0.00 | 65 | 1015.5 |
| 20260903192205 | 92 | 65 | 3.0 | 10.0 | 0.00 | 0.00 | 0.00 | 65 | 1015.4 |
| 20260903191206 | 91 | 70 | 3.0 | 8.0 | 0.00 | 0.00 | 0.00 | 66 | 1015.7 |
| 20260903190707 | 91 | 138 | 3.0 | 8.0 | 0.00 | 0.00 | 0.00 | 66 | 1015.8 |
| 20260903190204 | 91 | 90 | 3.0 | 7.0 | 0.00 | 0.00 | 0.00 | 66 | 1015.8 |
| 20260903185705 | 92 | 115 | 3.0 | 8.0 | 0.00 | 0.00 | 0.00 | 67 | 1015.8 |
| 20260903185203 | 91 | 110 | 3.0 | 9.0 | 0.00 | 0.00 | 0.00 | 66 | 1015.9 |
| 20260903184201 | 91 | 71 | 3.0 | 8.0 | 0.00 | 0.00 | 0.00 | 66 | 1016.0 |
| 20260903183701 | 91 | 60 | 3.0 | 10.0 | 0.00 | 0.00 | 0.00 | 65 | 1015.9 |
| 20260903183203 | 92 | 82 | 4.0 | 10.0 | 0.00 | 0.00 | 0.00 | 63 | 1016.1 |
| 20260903182702 | 91 | 103 | 4.0 | 11.0 | 0.00 | 0.00 | 0.00 | 67 | 1016.1 |
| 20260903182202 | 91 | 48 | 4.0 | 11.0 | 0.00 | 0.00 | 0.00 | 65 | 1016.1 |
| 20260903181702 | 91 | 67 | 6.0 | 13.0 | 0.00 | 0.00 | 0.00 | 67 | 1016.2 |
| 20260903181201 | 90 | 56 | 6.0 | 13.0 | 0.00 | 0.00 | 0.00 | 67 | 1016.4 |
| 20260903180702 | 90 | 75 | 5.0 | 10.0 | 0.00 | 0.00 | 0.00 | 67 | 1016.5 |
| 20260903180200 | 90 | 40 | 5.0 | 11.0 | 0.00 | 0.00 | 0.00 | 66 | 1016.5 |
| 20260903175700 | 90 | 58 | 5.0 | 11.0 | 0.00 | 0.00 | 0.00 | 66 | 1016.4 |
| 20260903174658 | 90 | 64 | 6.0 | 12.0 | 0.00 | 0.00 | 0.00 | 69 | 1016.8 |
| 20260903174159 | 90 | 62 | 5.0 | 10.0 | 0.00 | 0.00 | 0.00 | 66 | 1016.7 |
| 20260903173700 | 90 | 66 | 5.0 | 9.0 | 0.00 | 0.00 | 0.00 | 65 | 1016.8 |
| 20260903173201 | 90 | 58 | 5.0 | 9.0 | 0.00 | 0.00 | 0.00 | 66 | 1016.9 |
| 20260903172659 | 90 | 64 | 5.0 | 10.0 | 0.00 | 0.00 | 0.00 | 67 | 1016.9 |
| 20260903172158 | 91 | 50 | 4.0 | 10.0 | 0.00 | 0.00 | 0.00 | 66 | 1017.0 |
| 20260903171659 | 90 | 58 | 4.0 | 9.0 | 0.00 | 0.00 | 0.00 | 67 | 1017.2 |
| 20260903170659 | 90 | 35 | 5.0 | 10.0 | 0.00 | 0.00 | 0.00 | 65 | 1017.3 |
| 20260903165200 | 90 | 52 | 4.0 | 11.0 | 0.00 | 0.00 | 0.00 | 68 | 1017.3 |
| 20260903164704 | 89 | 339 | 4.0 | 11.0 | 0.00 | 0.00 | 0.00 | 71 | 1017.5 |
| 20260903164203 | 89 | 39 | 4.0 | 9.0 | 0.00 | 0.00 | 0.00 | 70 | 1017.6 |
| 20260903163659 | 89 | 38 | 4.0 | 10.0 | 0.00 | 0.00 | 0.00 | 69 | 1017.8 |
| 20260903163201 | 89 | 35 | 5.0 | 10.0 | 0.00 | 0.00 | 0.00 | 69 | 1017.6 |
| 20260903162201 | 88 | 64 | 5.0 | 10.0 | 0.00 | 0.00 | 0.00 | 69 | 1017.6 |
| 20260903161658 | 89 | 77 | 5.0 | 9.0 | 0.00 | 0.00 | 0.00 | 72 | 1017.7 |
| 20260903161201 | 88 | 67 | 4.0 | 9.0 | 0.00 | 0.00 | 0.00 | 70 | 1017.8 |
| 20260903160659 | 88 | 70 | 3.0 | 8.0 | 0.00 | 0.00 | 0.00 | 72 | 1017.9 |
| 20260903160158 | 87 | 71 | 3.0 | 7.0 | 0.00 | 0.00 | 0.00 | 75 | 1017.8 |
| 20260903155657 | 86 | 71 | 3.0 | 7.0 | 0.00 | 0.00 | 0.00 | 76 | 1017.9 |
| 20260903155157 | 87 | 73 | 4.0 | 9.0 | 0.00 | 0.00 | 0.00 | 76 | 1018.1 |
| 20260903153657 | 86 | 57 | 3.0 | 7.0 | 0.00 | 0.00 | 0.00 | 78 | 1018.0 |
| 20260903153158 | 86 | 55 | 3.0 | 7.0 | 0.00 | 0.00 | 0.00 | 77 | 1018.1 |
| 20260903152658 | 87 | 52 | 3.0 | 10.0 | 0.00 | 0.00 | 0.00 | 76 | 1018.2 |
| 20260903152156 | 87 | 74 | 4.0 | 10.0 | 0.00 | 0.00 | 0.00 | 77 | 1018.3 |
| 20260903151656 | 86 | 54 | 2.0 | 9.0 | 0.00 | 0.00 | 0.00 | 77 | 1018.2 |
| 20260903150656 | 85 | 1 | 4.0 | 8.0 | 0.00 | 0.00 | 0.00 | 81 | 1018.2 |
| 20260903150156 | 85 | 96 | 4.0 | 9.0 | 0.00 | 0.00 | 0.00 | 80 | 1018.3 |
| 20260903145155 | 85 | 72 | 2.0 | 7.0 | 0.00 | 0.00 | 0.00 | 84 | 1018.1 |
| 20260903144654 | 83 | 73 | 2.0 | 7.0 | 0.00 | 0.00 | 0.00 | 86 | 1018.0 |
| 20260903144155 | 83 | 54 | 3.0 | 7.0 | 0.00 | 0.00 | 0.00 | 87 | 1018.0 |
| 20260903143154 | 82 | 27 | 3.0 | 7.0 | 0.00 | 0.00 | 0.00 | 90 | 1018.1 |
| 20260903142653 | 81 | 32 | 3.0 | 7.0 | 0.00 | 0.00 | 0.00 | 93 | 1017.9 |
| 20260903142153 | 80 | 342 | 4.0 | 8.0 | 0.00 | 0.00 | 0.00 | 94 | 1018.0 |
| 20260903141652 | 80 | 35 | 4.0 | 8.0 | 0.00 | 0.00 | 0.00 | 94 | 1017.9 |
| 20260903141150 | 80 | 65 | 4.0 | 8.0 | 0.00 | 0.00 | 0.00 | 95 | 1018.1 |
| 20260903140651 | 79 | 67 | 4.0 | 8.0 | 0.00 | 0.00 | 0.00 | 96 | 1018.0 |
| 20260903135651 | 79 | 31 | 4.0 | 8.0 | 0.00 | 0.00 | 0.00 | 96 | 1017.9 |
| 20260903135150 | 78 | 49 | 4.0 | 8.0 | 0.00 | 0.00 | 0.00 | 96 | 1017.9 |
| 20260903134652 | 79 | 54 | 3.0 | 8.0 | 0.00 | 0.00 | 0.00 | 96 | 1018.1 |
| 20260903134151 | 79 | 71 | 3.0 | 8.0 | 0.00 | 0.00 | 0.00 | 96 | 1018.0 |
| 20260903133652 | 79 | 71 | 3.0 | 8.0 | 0.00 | 0.00 | 0.00 | 96 | 1018.0 |
| 20260903133150 | 79 | 63 | 3.0 | 5.0 | 0.00 | 0.00 | 0.00 | 96 | 1018.1 |
| 20260903132645 | 78 | 63 | 3.0 | 6.0 | 0.00 | 0.00 | 0.00 | 96 | 1018.1 |
| 20260903132145 | 78 | 55 | 3.0 | 6.0 | 0.00 | 0.00 | 0.00 | 96 | 1018.2 |
| 20260903131644 | 78 | 62 | 3.0 | 6.0 | 0.00 | 0.00 | 0.00 | 96 | 1018.1 |
| 20260903131143 | 78 | 47 | 3.0 | 6.0 | 0.00 | 0.00 | 0.00 | 96 | 1018.0 |
| 20260903130640 | 78 | 41 | 3.0 | 7.0 | 0.00 | 0.00 | 0.00 | 96 | 1018.0 |
| 20260903130141 | 78 | 40 | 3.0 | 7.0 | 0.00 | 0.00 | 0.00 | 96 | 1018.2 |